This demonstration page uses our WeatherBlox Daily Observations layout. Learn more.

Left ArrowRight Arrow

Hourly Observations for February 8, 2015

Temp ( °F °C ) Dew Point ( °F °C ) Humidity (%) Winds ( mph kmh ) Pressure ( in mb ) Visibility ( mi km ) Precip ( " mm )
12:51 am 00:51 Clear 49 9.4 34 1.1 56 56 SE 5 7 30.06 1018 10 16 0.00 0.00
1:51 am 01:51 Clear 47 8.3 34 1.1 61 61 SE 3 6 30.06 1018 10 16 0.00 0.00
2:51 am 02:51 Clear 44 6.7 34 1.1 68 68 ESE 5 7 30.06 1018 10 16 0.00 0.00
3:51 am 03:51 Clear 45 7.2 34 1.1 66 66 SE 5 7 30.05 1018 10 16 0.00 0.00
4:51 am 04:51 Clear 44 6.7 34 1.1 68 68 E 7 11 30.06 1018 10 16 0.00 0.00
5:51 am 05:51 Clear 44 6.7 34 1.1 68 68 SE 5 7 30.08 1019 10 16 0.00 0.00
6:51 am 06:51 Clear 42 5.6 34 1.1 73 73 E 3 6 30.12 1020 10 16 0.00 0.00
7:51 am 07:51 Sunny 43 6.1 35 1.7 74 74 Calm 30.14 1021 10 16 0.00 0.00
8:51 am 08:51 Sunny 49 9.4 34 1.1 56 56 ESE 5 7 30.14 1021 10 16 0.00 0.00
9:51 am 09:51 Sunny 57 13.9 34 1.1 42 42 ESE 6 9 30.14 1021 10 16 0.00 0.00
10:51 am 10:51 Sunny 63 17.2 33 0.6 33 33 E 5 7 30.12 1020 10 16 0.00 0.00
11:51 am 11:51 Sunny 66 18.9 32 0 28 28 Calm 30.10 1019 10 16 0.00 0.00
12:51 pm 12:51 Sunny 70 21.1 31 -0.6 23 23 W 6 9 30.05 1018 10 16 0.00 0.00
1:51 pm 13:51 Sunny 73 22.8 29 -1.7 19 19 W 8 13 30.01 1016 10 16 0.00 0.00
2:51 pm 14:51 Sunny 74 23.3 30 -1.1 20 20 WNW 9 15 29.99 1016 10 16 0.00 0.00
3:51 pm 15:51 Sunny 76 24.4 31 -0.6 19 19 WNW 10 17 29.97 1015 10 16 0.00 0.00
4:51 pm 16:51 Sunny 75 23.9 31 -0.6 20 20 WNW 9 15 29.97 1015 10 16 0.00 0.00
5:51 pm 17:51 Sunny 69 20.6 34 1.1 27 27 WNW 9 15 29.99 1016 10 16 0.00 0.00
6:51 pm 18:51 Clear 63 17.2 36 2.2 37 37 NW 7 11 30.02 1017 10 16 0.00 0.00
7:51 pm 19:51 Clear 61 16.1 36 2.2 39 39 N 6 9 30.04 1017 10 16 0.00 0.00
8:51 pm 20:51 Clear 58 14.4 38 3.3 48 48 Calm 30.04 1017 10 16 0.00 0.00
9:51 pm 21:51 Clear 55 12.8 39 3.9 55 55 WSW 3 6 30.04 1017 10 16 0.00 0.00
10:51 pm 22:51 Clear 52 11.1 39 3.9 61 61 SE 5 7 30.04 1017 10 16 0.00 0.00
11:51 pm 23:51 Clear 51 10.6 39 3.9 64 64 E 7 11 30.05 1018 10 16 0.00 0.00

Powered by AerisWeather